CAPE
231 202 144 186 205 14 26 0 0 0 0 0 0 0 0 0 0 0 0 0 0 0 0 0 0 0 0 0 0 0 0 0
477 289 328 352 31 0 0 0 0 0 0 0 0 0 0 0 0 0 0 0 0 0 0 0 0 0 0 0 0 0 0 0
554 445 437 217 1 1 0 0 0 0 0 0 0 0 0 0 0 0 0 0 0 0 0 0 0 0 0 0 0 0 0 0
486 473 258 205 2 4 8 0 0 0 0 0 0 0 0 0 0 0 0 0 0 0 0 0 0 0 0 0 0 0 0 0
219 240 180 138 40 24 42 0 0 0 0 0 0 0 0 0 0 0 0 0 0 0 0 0 0 0 0 0 0 0 0 0
23 145 87 39 18 23 6 0 0 0 0 0 0 0 0 0 0 0 0 0 0 0 0 0 0 0 0 0 0 0 0 0
0 37 27 7 31 22 1 0 0 0 0 0 0 0 0 0 0 0 0 0 0 0 0 0 0 0 0 0 0 0 0 0
60 84 83 50 33 16 15 9 2 0 0 0 0 0 0 0 0 0 0 0 0 0 0 0 0 0 0 0 0 0 0 0
276 182 145 82 58 72 43 50 50 0 0 0 0 0 0 0 0 0 0 0 0 0 0 0 0 0 0 0 0 0 0 0
303 348 226 70 41 93 44 48 36 0 0 0 0 0 0 0 0 0 0 0 0 0 0 0 0 0 0 0 0 0 0 0
192 262 187 151 20 28 12 0 0 0 0 0 0 0 0 0 0 0 0 0 0 0 0 0 0 0 0 0 0 0 0 0
225 187 84 71 36 4 0 0 0 0 0 0 0 0 0 0 0 0 0 0 0 0 0 0 0 0 0 0 0 0 0 0
228 165 64 40 1 0 0 0 0 0 0 0 0 0 0 0 0 0 0 0 0 0 0 0 0 0 0 0 0 0 0 0
47 117 84 27 0 0 0 0 0 0 0 0 0 0 0 0 0 0 0 0 0 0 0 0 0 0 0 0 0 0 0 0
0 0 11 7 0 0 0 0 0 0 0 0 0 0 0 0 0 0 0 0 0 0 0 0 0 0 0 0 0 0 0 0
0 0 0 0 0 0 0 0 0 0 0 0 0 0 0 0 0 0 0 0 0 0 0 0 0 0 0 0 0 0 0 0
0 0 0 0 0 0 0 0 0 0 0 0 0 0 0 0 0 0 0 0 0 0 0 0 0 0 0 0 0 0 0 0
0 0 0 0 0 0 0 0 0 0 0 0 0 0 0 0 0 0 0 0 0 0 0 0 0 0 0 0 0 0 0 0
0 0 0 0 0 0 0 0 0 0 0 0 0 0 0 0 0 0 0 0 0 0 0 0 0 0 0 0 0 0 0 0
CIN
-226 -242 -265 -237 -200 -365 -317 -0 -0 -0 -0 -0 -0 -0 -0 -0 -0 -0 -0 -0 -0 -0 -0 -0 -0 -0 -0 -0 -0 -0 -0 -0
-199 -245 -211 -179 -168 -0 -0 -0 -0 -0 -0 -0 -0 -0 -0 -0 -0 -0 -0 -0 -0 -0 -0 -0 -0 -0 -0 -0 -0 -0 -0 -0
-235 -249 -214 -277 -60 -85 -0 -0 -0 -0 -0 -0 -0 -0 -0 -0 -0 -0 -0 -0 -0 -0 -0 -0 -0 -0 -0 -0 -0 -0 -0 -0
-266 -272 -359 -362 -121 -372 -238 -0 -0 -0 -0 -0 -0 -0 -0 -0 -0 -0 -0 -0 -0 -0 -0 -0 -0 -0 -0 -0 -0 -0 -0 -0
-313 -352 -402 -435 -525 -511 -440 -0 -0 -0 -0 -0 -0 -0 -0 -0 -0 -0 -0 -0 -0 -0 -0 -0 -0 -0 -0 -0 -0 -0 -0 -0
-389 -382 -443 -488 -508 -467 -431 -0 -0 -0 -0 -0 -0 -0 -0 -0 -0 -0 -0 -0 -0 -0 -0 -0 -0 -0 -0 -0 -0 -0 -0 -0
-0 -431 -459 -503 -453 -398 -386 -126 -0 -0 -0 -0 -0 -0 -0 -0 -0 -0 -0 -0 -0 -0 -0 -0 -0 -0 -0 -0 -0 -0 -0 -0
-408 -432 -450 -446 -447 -384 -320 -248 -181 -0 -0 -0 -0 -0 -0 -0 -0 -0 -0 -0 -0 -0 -0 -0 -0 -0 -0 -0 -0 -0 -0 -0
-369 -381 -394 -387 -374 -357 -314 -282 -225 -0 -0 -0 -0 -0 -0 -0 -0 -0 -0 -0 -0 -0 -0 -0 -0 -0 -0 -0 -0 -0 -0 -0
-407 -322 -315 -327 -313 -314 -312 -310 -260 -0 -0 -0 -0 -0 -0 -0 -0 -0 -0 -0 -0 -0 -0 -0 -0 -0 -0 -0 -0 -0 -0 -0
-479 -399 -376 -323 -251 -348 -217 -0 -0 -0 -0 -0 -0 -0 -0 -0 -0 -0 -0 -0 -0 -0 -0 -0 -0 -0 -0 -0 -0 -0 -0 -0
-485 -475 -489 -442 -437 -118 -0 -0 -0 -0 -0 -0 -0 -0 -0 -0 -0 -0 -0 -0 -0 -0 -0 -0 -0 -0 -0 -0 -0 -0 -0 -0
-492 -485 -490 -488 -28 -0 -0 -0 -0 -0 -0 -0 -0 -0 -0 -0 -0 -0 -0 -0 -0 -0 -0 -0 -0 -0 -0 -0 -0 -0 -0 -0
-521 -480 -494 -514 -0 -0 -0 -0 -0 -0 -0 -0 -0 -0 -0 -0 -0 -0 -0 -0 -0 -0 -0 -0 -0 -0 -0 -0 -0 -0 -0 -0
-0 -0 -255 -483 -0 -0 -0 -0 -0 -0 -0 -0 -0 -0 -0 -0 -0 -0 -0 -0 -0 -0 -0 -0 -0 -0 -0 -0 -0 -0 -0 -0
-0 -0 -0 -0 -0 -0 -0 -0 -0 -0 -0 -0 -0 -0 -0 -0 -0 -0 -0 -0 -0 -0 -0 -0 -0 -0 -0 -0 -0 -0 -0 -0
-0 -0 -0 -0 -0 -0 -0 -0 -0 -0 -0 -0 -0 -0 -0 -0 -0 -0 -0 -0 -0 -0 -0 -0 -0 -0 -0 -0 -0 -0 -0 -0
-0 -0 -0 -0 -0 -0 -0 -0 -0 -0 -0 -0 -0 -0 -0 -0 -0 -0 -0 -0 -0 -0 -0 -0 -0 -0 -0 -0 -0 -0 -0 -0
-0 -0 -0 -0 -0 -0 -0 -0 -0 -0 -0 -0 -0 -0 -0 -0 -0 -0 -0 -0 -0 -0 -0 -0 -0 -0 -0 -0 -0 -0 -0 -0
Wind_Speed
13 11 11 10 8 7 7 6 8 8 6 5 4 3 3 2 2 4 6 5 6 6 5 6 5 5 4 4 3 3 3 2
13 13 11 8 7 8 10 11 9 9 6 5 3 4 2 2 3 5 6 6 6 6 4 5 4 6 4 3 2 3 2 1
13 13 12 12 12 12 10 12 13 10 7 3 3 3 2 2 2 3 5 7 7 6 6 5 6 5 5 3 3 2 1 0
15 16 16 13 14 15 15 14 14 11 7 4 3 4 4 3 2 2 4 7 7 7 6 5 5 4 4 3 3 3 1 2
16 17 17 17 17 13 13 12 13 10 11 8 7 5 6 4 4 4 5 5 5 6 6 6 5 4 5 4 3 2 3 2
18 19 19 15 11 10 9 10 11 12 12 9 8 6 4 4 3 7 4 4 6 7 7 7 7 4 4 5 4 1 1 2
13 13 10 9 7 8 9 13 13 12 12 9 10 10 8 6 5 5 4 3 4 6 6 6 7 4 3 4 2 2 1 2
12 13 15 13 14 12 10 12 13 11 11 9 8 7 9 11 10 8 7 5 3 5 6 6 3 6 3 2 3 3 2 2
15 17 15 14 12 13 12 12 13 9 9 8 7 7 6 4 5 7 6 6 6 6 7 8 5 6 5 4 2 2 4 4
13 14 14 13 14 15 16 12 9 7 7 7 7 7 8 8 8 8 6 7 6 8 8 7 7 6 7 6 4 5 5 4
8 10 12 12 13 13 11 11 11 8 9 9 10 10 9 9 9 9 9 8 9 9 9 9 9 8 6 6 5 4 6 4
11 11 11 11 9 11 13 11 11 10 11 10 11 10 10 10 10 11 12 12 13 12 10 9 8 6 6 6 6 5 6 5
12 11 10 11 12 11 13 13 13 12 7 7 8 9 10 11 12 14 10 8 6 7 5 4 5 6 6 6 6 6 7 6
5 6 10 12 12 12 13 11 9 7 9 9 9 11 11 8 3 4 5 5 6 4 6 6 6 6 5 5 7 7 7 7
4 4 7 8 9 8 9 6 7 10 10 10 7 5 6 8 8 8 8 6 2 2 4 4 4 4 5 6 8 7 7 6
7 6 6 6 4 4 5 6 7 8 10 8 8 8 8 7 7 7 6 7 6 5 3 3 5 6 6 7 7 7 6 6
4 4 7 8 9 8 8 7 7 9 9 8 9 8 8 8 9 8 8 8 7 6 4 6 6 3 8 9 8 6 7 7
7 7 6 2 2 2 4 6 9 10 10 9 10 11 10 9 9 11 7 5 2 4 7 6 6 6 10 11 13 6 6 6
6 6 5 6 4 8 9 9 9 9 8 8 9 10 11 10 10 7 4 3 5 5 6 5 6 5 8 9 8 5 5 6
Wind_Direction
197 189 188 185 178 156 141 145 139 130 133 113 96 108 114 113 132 138 130 126 124 125 128 123 114 106 93 87 109 57 106 117
195 188 185 178 155 151 160 150 154 146 157 147 138 150 144 161 173 142 133 129 146 140 129 128 131 110 137 143 126 101 73 72
188 187 185 184 176 171 169 169 163 168 167 136 137 147 159 129 139 140 152 161 158 144 147 143 120 117 107 95 100 92 73 4
186 188 192 187 189 182 179 175 174 174 158 136 95 86 72 97 147 167 186 166 165 147 127 107 107 101 105 78 84 84 91 356
192 191 193 196 197 191 183 172 174 176 169 174 166 166 162 189 177 162 178 177 135 112 103 114 117 103 100 113 87 96 122 212
192 198 199 198 186 186 178 166 182 189 189 186 174 171 165 143 145 156 117 101 112 122 126 110 87 77 54 48 38 27 131 115
189 194 178 180 174 176 174 176 190 197 194 193 182 180 165 149 144 135 124 104 100 98 90 79 79 77 93 92 71 54 170 126
173 170 175 177 186 181 185 189 196 202 199 192 187 188 183 176 166 162 148 135 122 118 117 114 122 121 133 153 164 179 192 158
174 184 183 180 192 194 190 193 203 197 187 187 179 176 169 189 161 139 142 141 141 143 132 147 160 137 176 177 169 137 150 159
179 172 183 188 189 197 195 196 213 193 179 162 168 153 147 148 143 132 139 135 147 147 153 170 157 183 187 170 189 187 186 180
163 173 179 183 181 187 195 198 195 183 175 175 169 164 150 147 141 139 150 151 152 174 181 176 187 192 183 190 192 189 186 193
183 188 193 189 177 180 189 188 184 183 179 167 160 159 146 141 149 161 168 171 184 176 187 191 189 177 188 198 194 187 199 204
193 193 183 186 192 194 194 195 195 189 161 150 148 144 153 162 171 180 172 159 163 191 209 206 160 184 197 205 199 200 206 211
189 172 193 198 198 195 199 201 189 156 157 159 161 176 178 171 99 88 106 149 176 157 158 172 205 197 203 217 216 212 211 214
184 190 215 213 209 198 202 183 152 163 160 165 161 155 126 117 132 147 151 120 81 175 158 192 213 215 224 225 214 209 212 211
184 199 228 238 243 190 187 145 157 156 158 163 146 140 133 122 110 110 76 85 82 50 35 353 259 242 239 228 213 202 195 189
79 220 224 224 207 184 174 167 152 147 153 144 125 113 110 117 104 87 78 74 58 46 266 259 260 280 263 240 208 185 190 197
33 16 3 284 214 148 131 124 127 126 128 129 121 122 119 115 103 93 94 105 159 233 252 274 286 280 264 253 205 187 188 197
29 12 21 27 55 88 102 105 106 109 108 110 110 111 110 106 98 105 137 178 227 255 259 280 276 283 278 263 204 182 196 216